Lexington Weather

Lexington, Massachusetts, USA

76°F
8/7/2020 12:01pm 
  • Lexington Conditions: Mostly cloudy
  • Temperature: 75.6°F / 24.2°CWarmer 3.8°F than last hour.
  • Dew Point: 65.1°FIncreased 1.6°Fsince last hour.
  • Relative Humidity: 70%Decreased 5.0% since last hour.
  • Wind: Wind from N N 1 mph, 10-min avg: Calm, gust: 2 mph
  • Barometer: 30.13 in Steady
  • Visibility: 10 miles
  • Rain Today: 0.00 in
  •   

Regional Weather Roundup
for Boston / Norton, MA

        
000
ASUS41 KBOX 050904
RWRBOX

REGIONAL WEATHER ROUNDUP
NATIONAL WEATHER SERVICE BOSTON/NORTON MA
500 AM EDT WED AUG 05 2020

NOTE:  "FAIR" INDICATES FEW OR NO CLOUDS BELOW 12,000 FEET WITH NO 
SIGNIFICANT WEATHER AND/OR OBSTRUCTIONS TO VISIBILITY.

MAZALL-051000-
EASTERN MASSACHUSETTS
  
CITY           SKY/WX    TMP DP  RH WIND       PRES   REMARKS
BOSTON         PTCLDY    71  67  87 SW12      29.92R                  
BEVERLY        PTCLDY    71  66  84 SW7       29.91R                  
LAWRENCE       PTCLDY    70  64  81 S5        29.93R                  
BEDFORD        CLEAR     70  66  87 CALM      29.91R                  
BLUE HILL        N/A     69  67  93 SW13      29.93S                  
NORWOOD        CLEAR     70  66  87 CALM      29.92S                  
MARSHFIELD     CLEAR     73  72  94 SW8       29.93R                  
PLYMOUTH       CLEAR     72  69  90 S7        29.95R                  
TAUNTON        CLEAR     74  69  85 VRB5      29.93S                  
NEW BEDFORD    MOCLDY    73  70  90 SW10      29.95R                  
$$

MAZALL-051000-
CAPE COD AND THE ISLANDS
  
CITY           SKY/WX    TMP DP  RH WIND       PRES   REMARKS
FALMOUTH       NOT AVBL                                               
HYANNIS        PTCLDY    75  72  90 SW9       29.95S                  
CHATHAM        PTCLDY    74  71  91 SW8G17    29.98S                  
NANTUCKET      PTCLDY    71  69  93 S10       29.99R                  
MARTHAS VNYRD  CLEAR     72  71  97 SW9       29.96F                  
$$
 
MAZALL-051000-
CENTRAL AND WESTERN MASSACHUSETTS
  
CITY           SKY/WX    TMP DP  RH WIND       PRES   REMARKS
WORCESTER      CLEAR     68  65  90 SW10      29.95R                  
FITCHBURG      PTCLDY    69  63  81 SE6       29.93R                  
ORANGE         CLEAR     63  62  97 CALM      29.93S                  
SPRINGFIELD    CLOUDY    64  64  99 CALM      29.92R                  
WESTFIELD      PTCLDY    66  65  96 CALM      29.92R                  
NORTH ADAMS    NOT AVBL                                               
PITTSFIELD     CLEAR     62  61  96 CALM      29.95R FOG              
$$
 
RIZALL-051000-
RHODE ISLAND
  
CITY           SKY/WX    TMP DP  RH WIND       PRES   REMARKS
PROVIDENCE     CLEAR     72  70  93 S8        29.94S                  
NEWPORT        CLOUDY    72  69  90 SW7G17    29.95S                  
BLOCK ISLAND   CLEAR     69  68  96 SW12      29.97R                  
SMITHFIELD     CLEAR     70  70 100 SW5       29.95R                  
WESTERLY       CLEAR     71  68  90 SW7       29.95S                  
$$
 
CTZALL-051000-
CONNECTICUT
  
CITY           SKY/WX    TMP DP  RH WIND       PRES   REMARKS
BRADLEY INTL   MOCLDY    69  65  86 S3        29.93R                  
HARTFORD       NOT AVBL                                               
BRIDGEPORT     NOT AVBL                                               
DANBURY        MOCLDY    68  66  93 CALM      29.95S                  
GROTON         CLEAR     72  70  93 SW8       29.93S                  
NEW HAVEN        N/A    N/A N/A N/A MISG      29.93S                  
CHESTER        FAIR      72  72 100 VRB3      29.95S                  
MERIDEN        PTCLDY    69  66  90 CALM      29.93S                  
WILLIMANTIC    CLEAR     68  66  93 CALM      29.94S                  
OXFORD         MOCLDY    68  66  93 SW3       29.96S                  
$$

MEZ002-015-021-024-NHZ003-005-008-011-012-014-VTZ005-008-051000-
NORTHERN NEW ENGLAND
  
CITY           SKY/WX    TMP DP  RH WIND       PRES   REMARKS
PORTLAND ME    PTCLDY    71  62  73 SW8       29.88R                  
BANGOR ME      PTCLDY    68  64  87 S8        29.85R                  
CONCORD NH     CLEAR     65  62  90 S7        29.90R                  
MANCHESTER NH  PTCLDY    69  64  84 CALM      29.90R                  
NASHUA NH      CLEAR     69  67  93 CALM      29.92R                  
PORTSMOUTH NH  PTCLDY    68  61  77 SW6       29.89R                  
JAFFREY NH     CLEAR     65  62  90 CALM      29.94S                  
KEENE NH       CLEAR     61  61 100 CALM      29.93R                  
BURLINGTON VT  MOCLDY    68  63  84 S12       29.83R                  
MT. WASHINGTON FOG       50  50 100 W53         N/A  VSB 1/16         
$$

NYZ052-076-051000-
EASTERN NEW YORK
  
CITY           SKY/WX    TMP DP  RH WIND       PRES   REMARKS
ALBANY         PTCLDY    63  63 100 S7        29.91R                  
NEW YORK CITY  MOCLDY    78  68  71 SW8       29.92R                  
$$
 
ANZALL-051000-
MARINE OBSERVATIONS
  
STATION/POSITION TIME  TEMP    WIND        PRES    VSBY  WAVE
                       AIR SEA DIR/SP/G                  HT/PER
                 (UTC) (F)     (DEG/KT/KT) (MB)    (MI)  (FT/S)
BOSTON BUOY      0850   62 57  130/  4/  4 1012.2R         2/ 8
BUZZARDS BAY     0800          210/ 22/ 25 1014.5S
NANTUCKET SOUND  0850      76  220/ 16/ 19 1013.8S         2/ 4
MASS BAY-STELLWA 0804   66     240/  8/ 10 1010.7R  1 7/8  3/ 6
ISLE OF SHOALS   0800   69     220/ 16/ 16 1011.9R
S OF BLOCK IS    0826      72                N/A           9/ 8
$$

......................KEY.........................
  SKY/WX - SKY CONDITION/PRESENT WEATHER
  TMP    - TEMPERATURE IN FAHRENHEIT
  DWPT   - DEWPOINT IN FAHRENHEIT
  RH     - RELATIVE HUMIDITY IN PERCENT
  WIND   - DIRECTION AND SPEED IN MPH
  PRES   - MEAN SEA LEVEL PRESSURE IN INCHES OF HG
  WCI    - WIND CHILL INDEX
  VSB    - VISIBILITY IN MILES
  HX     - HEAT INDEX
  TC     - TEMPERATURE IN CELSIUS
  VRB    - VARIABLE WIND DIRECTION
  N/A    - NOT AVAILABLE
  
      

Other recent Regional Weather Roundups

Fri Aug 7, 11:04am

Fri Aug 7, 10:04am

Fri Aug 7, 9:04am

Fri Aug 7, 8:04am

Fri Aug 7, 7:04am

Fri Aug 7, 6:04am

Fri Aug 7, 5:04am

Fri Aug 7, 4:04am

Fri Aug 7, 3:04am

Fri Aug 7, 2:04am

Fri Aug 7, 1:05am

Fri Aug 7, 12:04am

Thu Aug 6, 11:04pm

Thu Aug 6, 10:04pm

Thu Aug 6, 9:04pm

Thu Aug 6, 8:04pm

Thu Aug 6, 7:04pm

Thu Aug 6, 6:04pm

Thu Aug 6, 5:04pm

Thu Aug 6, 4:05pm

Thu Aug 6, 3:04pm

Thu Aug 6, 2:05pm

Thu Aug 6, 1:04pm

Thu Aug 6, 12:04pm

Thu Aug 6, 11:04am

Thu Aug 6, 10:04am

Thu Aug 6, 9:04am

Thu Aug 6, 8:04am

Thu Aug 6, 7:04am

Thu Aug 6, 6:04am

Thu Aug 6, 5:04am

Thu Aug 6, 4:04am

Thu Aug 6, 3:04am

Thu Aug 6, 2:05am

Thu Aug 6, 1:04am

Thu Aug 6, 12:04am

Wed Aug 5, 11:04pm

Wed Aug 5, 10:04pm

Wed Aug 5, 9:04pm

Wed Aug 5, 8:05pm

Wed Aug 5, 7:04pm

Wed Aug 5, 6:04pm

Wed Aug 5, 5:04pm

Wed Aug 5, 4:05pm

Wed Aug 5, 3:04pm

Wed Aug 5, 2:04pm

Wed Aug 5, 1:04pm

Wed Aug 5, 12:04pm

Wed Aug 5, 11:04am

Wed Aug 5, 10:04am

Wed Aug 5, 9:04am

Wed Aug 5, 8:04am

Wed Aug 5, 7:04am

Wed Aug 5, 6:04am

Wed Aug 5, 4:04am

Wed Aug 5, 3:04am

Wed Aug 5, 2:05am

Wed Aug 5, 1:04am

Wed Aug 5, 12:05am

Tue Aug 4, 11:05pm

Tue Aug 4, 10:05pm

Tue Aug 4, 9:04pm

Tue Aug 4, 8:04pm

Tue Aug 4, 7:05pm

Tue Aug 4, 6:05pm

Tue Aug 4, 5:05pm

Tue Aug 4, 4:05pm

Tue Aug 4, 3:04pm

Tue Aug 4, 2:05pm

Tue Aug 4, 1:04pm

Tue Aug 4, 12:05pm

Tue Aug 4, 11:04am

Tue Aug 4, 10:04am

Tue Aug 4, 9:04am

Tue Aug 4, 8:04am

Tue Aug 4, 7:04am

Tue Aug 4, 6:04am

Tue Aug 4, 5:04am

Tue Aug 4, 4:04am

Tue Aug 4, 3:04am

Tue Aug 4, 2:04am

Tue Aug 4, 1:04am

Tue Aug 4, 12:04am

Mon Aug 3, 11:04pm

Mon Aug 3, 10:04pm

Mon Aug 3, 9:04pm

Mon Aug 3, 8:05pm

Mon Aug 3, 7:04pm

Mon Aug 3, 6:04pm

Mon Aug 3, 5:04pm

Mon Aug 3, 4:05pm

Mon Aug 3, 3:04pm

Mon Aug 3, 2:04pm

Mon Aug 3, 1:04pm

Mon Aug 3, 12:05pm

Mon Aug 3, 11:04am

Mon Aug 3, 10:04am

Mon Aug 3, 9:05am

Mon Aug 3, 8:04am

Mon Aug 3, 7:04am

Mon Aug 3, 6:04am

Mon Aug 3, 5:04am

Mon Aug 3, 4:04am

Mon Aug 3, 3:04am

Mon Aug 3, 2:04am

Mon Aug 3, 1:04am

Mon Aug 3, 12:05am

Sun Aug 2, 11:04pm

Sun Aug 2, 10:04pm

Sun Aug 2, 9:04pm

Sun Aug 2, 8:04pm

Sun Aug 2, 7:04pm

Sun Aug 2, 6:04pm

Sun Aug 2, 5:04pm

Sun Aug 2, 4:05pm

Sun Aug 2, 3:04pm

Sun Aug 2, 2:05pm

Sun Aug 2, 1:04pm

Sun Aug 2, 12:04pm

Sun Aug 2, 11:04am

Sun Aug 2, 10:04am

Sun Aug 2, 9:05am

Sun Aug 2, 8:05am

Sun Aug 2, 7:04am

Sun Aug 2, 6:04am

Sun Aug 2, 5:04am

Sun Aug 2, 4:05am

Sun Aug 2, 3:04am

Sun Aug 2, 2:04am

Sun Aug 2, 1:04am

Sun Aug 2, 12:05am

Sat Aug 1, 11:04pm

Sat Aug 1, 10:04pm

Sat Aug 1, 9:04pm

Sat Aug 1, 8:05pm

Sat Aug 1, 7:04pm

Sat Aug 1, 6:04pm

Sat Aug 1, 5:05pm

Sat Aug 1, 4:05pm

Sat Aug 1, 3:04pm

Sat Aug 1, 2:04pm

Sat Aug 1, 1:04pm

Sat Aug 1, 12:04pm

Sat Aug 1, 11:05am

Sat Aug 1, 10:05am

Sat Aug 1, 9:04am

Sat Aug 1, 8:04am

Sat Aug 1, 7:04am

Sat Aug 1, 6:04am

Sat Aug 1, 5:04am

Sat Aug 1, 4:05am

Sat Aug 1, 3:04am

Sat Aug 1, 2:04am

Sat Aug 1, 1:04am

Sat Aug 1, 12:05am

Fri Jul 31, 11:05pm

Fri Jul 31, 10:04pm

Fri Jul 31, 9:04pm

Fri Jul 31, 8:05pm

Fri Jul 31, 7:05pm

Fri Jul 31, 6:04pm

Fri Jul 31, 5:04pm

Fri Jul 31, 4:05pm

Fri Jul 31, 3:04pm

Fri Jul 31, 2:05pm

Fri Jul 31, 1:04pm

Fri Jul 31, 12:04pm

Meta data:

ID: 344dcd27-06b2-4441-94d8-b6cfe4dd3f79
Link: https://api.weather.gov/products/344dcd27-06b2-4441-94d8-b6cfe4dd3f79